DateTimeUTC,F1_A11,F1_S11,BsB_S11,BsG_S11,BsR_S11,BbsB_S11,BbsG_S11,BbsR_S11,BaB_A11,BaG_A11,BaR_A11,Tu_S11,T_S11,Uu_S11,U_S11,P_S11,T1_A11
2021-12-11T13:00:00Z,00000200,21000000,,,,,,,0000.01,0000.64,-000.04,20.4,27.4,,00.0,0650.5,31.2
2021-12-11T13:01:00Z,00000200,21000000,,,,,,,0000.75,0000.40,0000.74,20.4,27.4,,00.0,0650.5,31.2
2021-12-11T13:02:00Z,00000200,21000000,,,,,,,0000.03,-000.23,0000.28,20.4,27.4,,00.0,0650.5,31.2
2021-12-11T13:03:00Z,00000200,61000000,,,,,,,0000.42,0000.41,0000.07,20.4,27.4,,00.0,0650.5,31.2
2021-12-11T13:04:00Z,00000200,41000000,-000.63,0000.14,-000.37,0000.11,-000.21,-000.27,0000.58,0000.79,-000.06,20.6,27.3,,00.0,0651.3,31.3
2021-12-11T13:05:00Z,00000200,01000000,0000.22,-000.19,0000.16,0000.47,-000.03,0000.01,0000.27,-000.05,0000.54,20.7,27.3,,00.0,0651.3,31.3
2021-12-11T13:06:00Z,00000200,01000000,0000.80,0000.05,-000.05,0000.46,0000.14,0000.15,0000.30,0000.27,0000.05,20.7,27.3,,00.0,0651.3,31.3
2021-12-11T13:07:00Z,00000200,01000000,-000.01,-000.02,-000.08,0000.15,-000.14,0000.06,0000.06,0000.20,0000.42,20.8,27.3,,00.0,0651.3,31.3
2021-12-11T13:08:00Z,00000200,01000000,0000.42,0000.15,0000.03,0000.30,0000.24,-000.27,0000.28,0000.64,0000.17,20.8,27.3,,00.0,0651.3,31.3
2021-12-11T13:09:00Z,00000200,01000000,0001.01,-000.00,0000.05,0000.45,0000.05,0000.06,0000.66,0000.53,0000.58,20.8,27.3,,00.0,0651.4,31.3
2021-12-11T13:10:00Z,00000200,01000000,0000.12,-000.09,-000.03,-000.14,-000.17,0000.14,0000.29,0000.18,-000.31,20.8,27.4,,00.0,0651.4,31.3
2021-12-11T13:11:00Z,00000200,01000000,-000.57,0000.01,0000.05,0000.87,0000.27,-000.33,0000.27,-000.11,0000.07,20.9,27.4,,00.0,0651.4,31.3
2021-12-11T13:12:00Z,00000200,01000000,0000.36,0000.11,0000.01,0000.30,-000.27,-000.01,0000.29,0000.72,0000.28,20.9,27.4,,00.0,0651.4,31.3
2021-12-11T13:13:00Z,00000200,01000000,-000.47,0000.48,-000.29,0000.46,0000.15,-000.22,0000.19,-000.21,0000.43,20.9,27.4,,00.0,0651.4,31.3
2021-12-11T13:14:00Z,00000200,01000000,0000.34,-000.07,-000.07,-000.26,0000.01,0000.17,0000.33,0000.45,0000.15,21.0,27.4,,00.0,0651.4,31.3
2021-12-11T13:15:00Z,00000200,01000000,0000.45,0000.10,0000.12,-000.27,0000.36,0000.21,-000.02,0000.32,0000.05,21.0,27.5,,00.0,0651.3,31.3
2021-12-11T13:16:00Z,00000200,01000000,-000.05,-000.32,0000.26,0000.37,0000.25,-000.02,0000.29,0000.26,0000.09,21.0,27.5,,00.0,0651.3,31.4
2021-12-11T13:17:00Z,00000200,01000000,-000.11,0000.40,-000.08,0000.70,-000.02,-000.04,0000.11,0000.10,0000.26,21.1,27.5,,00.0,0651.3,31.4
2021-12-11T13:18:00Z,00000200,01000000,0000.09,-000.26,0000.00,-000.25,0000.21,0000.26,0000.06,0000.26,0000.33,21.1,27.5,,00.0,0651.4,31.4
2021-12-11T13:19:00Z,00000200,01000000,-000.58,-000.19,0000.09,-000.12,0000.04,0000.04,0000.09,0000.10,0000.10,21.1,27.5,,00.0,0651.3,31.4
2021-12-11T13:20:00Z,00000200,01000000,-001.07,-000.11,0000.19,0000.25,-000.12,0000.23,0000.37,0000.19,0000.14,21.1,27.5,,00.0,0651.3,31.4
2021-12-11T13:21:00Z,00000200,01000000,0000.28,-000.40,0000.01,0000.61,0000.30,-000.08,0000.23,0000.31,0000.12,21.2,27.6,,00.0,0651.3,31.4
2021-12-11T13:22:00Z,00000200,01000000,-000.40,0000.20,0000.07,-000.11,0000.13,0000.18,0000.48,-000.08,0000.05,21.2,27.6,,00.0,0651.3,31.4
2021-12-11T13:23:00Z,00000200,01000000,0000.39,0000.24,0000.09,0000.29,0000.09,0000.12,0000.33,0000.43,0000.37,21.2,27.6,,00.0,0651.3,31.5
2021-12-11T13:24:00Z,00000200,01000000,0001.15,0000.03,-000.17,0000.88,0000.08,-000.30,0000.02,-000.29,-000.20,21.2,27.6,,00.0,0651.3,31.5
2021-12-11T13:25:00Z,00000200,01000000,0000.32,-000.13,-000.07,0000.09,0000.12,-000.17,-000.05,0000.07,0000.45,21.3,27.6,,00.0,0651.3,31.5
2021-12-11T13:26:00Z,00000200,01000000,0000.10,-000.15,0000.52,0000.28,0000.12,0000.29,0000.21,0000.83,-000.05,21.3,27.7,,00.0,0651.3,31.5
2021-12-11T13:27:00Z,00000200,01000000,0000.10,-000.12,0000.31,0000.20,-000.02,0000.14,0000.26,-000.15,0000.48,21.3,27.7,,00.0,0651.3,31.5
2021-12-11T13:28:00Z,00000200,01000000,-000.08,0000.02,-000.11,-000.07,-000.08,0000.09,0000.04,0000.16,-000.21,21.3,27.7,,00.0,0651.3,31.5
2021-12-11T13:29:00Z,00000200,01000000,-000.04,-000.09,0000.15,0000.01,0000.36,0000.08,0000.10,0000.30,0000.19,21.3,27.7,,00.0,0651.3,31.5
2021-12-11T13:30:00Z,00000200,01000000,0000.13,-000.37,-000.05,0000.49,0000.02,-000.19,0000.27,-000.16,0000.18,21.3,27.7,,00.0,0651.3,31.5
2021-12-11T13:31:00Z,00000200,01000000,0000.44,-000.29,0000.10,-000.36,-000.16,-000.08,0000.02,0000.11,-000.34,21.3,27.7,,00.0,0651.3,31.5
2021-12-11T13:32:00Z,00000200,01000000,0000.12,0000.24,0000.09,0000.46,-000.04,-000.03,0000.42,0000.43,0000.45,21.4,27.7,,00.0,0651.3,31.5
2021-12-11T13:33:00Z,00000200,01000000,-000.61,-000.00,0000.10,0000.04,-000.15,0000.02,0000.00,0000.22,-000.13,21.4,27.7,,00.0,0651.3,31.5
2021-12-11T13:34:00Z,00000200,01000000,-000.33,-000.08,0000.09,0000.05,0000.01,0000.02,0000.18,0000.47,0000.56,21.4,27.8,,00.0,0651.2,31.5
2021-12-11T13:35:00Z,00000200,01000000,-000.09,-000.09,0000.35,-000.04,0000.03,0000.21,0000.20,-000.02,0000.28,21.4,27.8,,00.0,0651.2,31.5
2021-12-11T13:36:00Z,00000200,01000000,-000.63,-000.31,-000.00,0000.45,0000.22,-000.30,0000.44,-000.05,-000.16,21.3,27.7,,00.0,0651.2,31.5
2021-12-11T13:37:00Z,00000200,01000000,-000.65,-000.08,0000.24,0000.03,0000.36,-000.03,0000.33,0000.31,0000.13,21.2,27.7,,00.0,0651.2,31.5
2021-12-11T13:38:00Z,00000200,01000000,-000.48,-000.23,0000.11,0000.29,0000.11,-000.03,0000.29,0000.43,0000.40,21.1,27.7,,00.0,0651.2,31.4
2021-12-11T13:39:00Z,00000200,01000000,0000.34,0000.36,-000.09,0000.03,0000.08,0000.20,0000.17,-000.03,-000.04,21.1,27.6,,00.0,0651.2,31.4
2021-12-11T13:40:00Z,00000200,01000000,-000.43,-000.12,-000.01,0000.19,-000.06,0000.16,0000.27,-000.00,0000.13,21.0,27.6,,00.0,0651.2,31.3
2021-12-11T13:41:00Z,00000200,01000000,-000.30,0000.01,0000.32,0000.12,-000.06,0000.08,0000.40,0000.40,0000.23,20.9,27.5,,00.0,0651.1,31.3
2021-12-11T13:42:00Z,00000200,01000000,0000.08,-000.12,0000.48,-000.47,0000.19,-000.01,0000.15,0000.05,0000.09,20.8,27.4,,00.0,0651.1,31.3
2021-12-11T13:43:00Z,00000200,01000000,-000.05,-000.18,0000.26,-000.40,-000.33,0000.14,-000.08,0000.63,0000.05,20.7,27.4,,00.0,0651.2,31.2
2021-12-11T13:44:00Z,00000200,01000000,-000.35,0000.10,0000.33,0000.27,-000.18,0000.59,0000.41,-000.07,0000.14,20.7,27.4,,00.0,0651.2,31.2
2021-12-11T13:45:00Z,00000200,01000000,0000.02,0000.07,0000.08,-000.03,0000.20,-000.00,0000.12,-000.05,0000.09,20.7,27.4,,00.0,0651.1,31.2
2021-12-11T13:46:00Z,00000200,01000000,0000.43,-000.35,0000.15,0000.07,-000.06,0000.06,0000.24,0000.20,-000.07,20.7,27.4,,00.0,0651.1,31.2
2021-12-11T13:47:00Z,00000200,01000000,0000.21,-000.36,-000.33,0000.32,-000.16,-000.25,0000.26,0000.53,0000.24,20.7,27.4,,00.0,0651.1,31.3
2021-12-11T13:48:00Z,00000200,01000000,0000.49,0000.05,0000.48,0000.68,0000.16,0000.00,0000.28,0000.30,0000.38,20.8,27.4,,00.0,0651.2,31.3
2021-12-11T13:49:00Z,00000200,01000000,0000.15,0000.35,0000.08,0000.77,-000.16,-000.02,0000.23,0000.07,0000.19,20.8,27.4,,00.0,0651.1,31.3
2021-12-11T13:50:00Z,00000200,01000000,-000.19,0000.07,0000.09,-000.25,0000.27,0000.18,0000.04,0000.14,-000.03,20.8,27.5,,00.0,0651.1,31.3
2021-12-11T13:51:00Z,00000200,01000000,0000.55,-000.26,0000.02,0000.20,0000.12,-000.18,0000.52,0000.47,0000.29,20.8,27.4,,00.0,0651.0,31.3
2021-12-11T13:52:00Z,00000200,01000000,0000.37,-000.26,0000.58,-000.39,0000.43,0000.16,-000.08,-000.19,-000.08,20.8,27.4,,00.0,0651.0,31.3
2021-12-11T13:53:00Z,00000200,01000000,0000.01,-000.23,-000.17,0000.01,-000.12,0000.02,0000.51,0000.32,0000.41,20.7,27.4,,00.0,0651.0,31.2
2021-12-11T13:54:00Z,00000200,01000000,0000.47,0000.01,0000.40,0000.19,0000.13,0000.18,-000.00,0000.51,0000.24,20.6,27.3,,00.0,0651.0,31.2
2021-12-11T13:55:00Z,00000200,01000000,0000.46,-000.12,0000.04,-000.85,0000.03,0000.04,-000.05,-000.32,0000.09,20.6,27.3,,00.0,0651.0,31.1
2021-12-11T13:56:00Z,00000200,01000000,0000.04,0000.09,0000.16,-000.05,0000.04,0000.05,0000.71,0000.14,-000.00,20.5,27.2,,00.0,0651.0,31.1
2021-12-11T13:57:00Z,00000200,41000000,,,,,,,-001.21,-000.23,-000.40,20.5,27.3,,00.0,0651.0,31.1
2021-12-11T13:58:00Z,00000200,61000000,,,,,,,0000.25,-000.31,-000.04,20.1,27.3,,00.0,0650.1,31.1
2021-12-11T13:59:00Z,00000200,21000000,,,,,,,0000.17,0000.17,-000.32,20.1,27.4,,00.0,0650.0,31.1
